�N����,����,�~����,�C��,���x,�C��,����,���ϕ���,�ő�u�ԕ���,�ő厞����,���˗�,�I�_���x,�n�����x,�ő啗���N��,DTYPE
"23/05/24","00:10",0.2,14.0,84.4,1004.1,325.6,2.3,4.1,334.8,0.00,11.5,18.2,"00:07:28",1
"23/05/24","00:20",0.0,13.6,85.1,1003.6,312.6,2.0,3.4,326.0,0.00,11.2,18.2,"00:10:48",1
"23/05/24","00:30",0.0,13.4,85.5,1003.1,289.1,1.1,2.1,334.0,0.00,11.1,18.1,"00:20:08",1
"23/05/24","00:40",0.0,13.4,86.1,1003.8,312.8,0.8,1.8,329.9,0.00,11.2,18.1,"00:35:20",1
"23/05/24","00:50",0.0,13.2,86.8,1003.6,315.4,1.7,2.6,325.8,0.00,11.1,18.1,"00:49:20",1
"23/05/24","01:00",0.0,12.9,87.5,1003.4,317.4,1.8,2.9,336.9,0.00,10.9,18.1,"00:58:24",1
"23/05/24","01:10",0.0,12.8,88.1,1003.4,327.2,2.0,4.4,337.4,0.00,10.9,17.9,"01:04:32",1
"23/05/24","01:20",0.0,12.5,88.8,1003.6,311.5,2.0,2.7,313.1,0.00,10.7,18.0,"01:16:32",1
"23/05/24","01:30",0.0,12.2,89.4,1003.6,316.6,2.5,3.5,323.7,0.00,10.5,18.1,"01:21:04",1
"23/05/24","01:40",0.0,12.0,89.9,1003.6,308.1,2.6,3.9,338.7,0.00,10.4,17.7,"01:31:36",1
"23/05/24","01:50",0.0,11.8,90.4,1003.6,321.1,2.1,3.4,336.1,0.00,10.3,17.8,"01:45:44",1
"23/05/24","02:00",0.0,11.7,90.8,1003.4,319.8,3.0,4.8,326.4,0.00,10.3,17.8,"01:59:28",1
"23/05/24","02:10",0.0,11.8,91.0,1003.8,331.1,3.0,5.2,339.9,0.00,10.4,17.7,"02:01:56",1
"23/05/24","02:20",0.0,11.8,91.2,1003.6,326.9,2.8,4.4,326.5,0.00,10.5,17.8,"02:18:22",1
"23/05/24","02:30",0.0,11.8,91.4,1003.8,324.2,3.2,4.7,313.8,0.00,10.5,17.7,"02:23:00",1
"23/05/24","02:40",0.0,11.9,91.4,1003.8,318.4,3.5,5.5,339.9,0.00,10.6,17.7,"02:36:20",1
"23/05/24","02:50",0.0,11.7,91.5,1003.8,330.2,2.8,4.4,319.3,0.00,10.4,17.7,"02:41:08",1
"23/05/24","03:00",0.0,11.8,91.7,1003.8,325.2,3.4,5.2,305.7,0.00,10.5,17.5,"02:54:18",1
"23/05/24","03:10",0.0,11.8,91.7,1004.1,329.5,4.0,5.9,345.9,0.00,10.5,17.7,"03:05:14",1
"23/05/24","03:20",0.0,11.7,91.7,1003.6,328.9,3.7,4.4,312.6,0.00,10.4,17.5,"03:10:50",1
"23/05/24","03:30",0.0,11.6,91.8,1004.1,328.2,3.6,5.1,320.2,0.00,10.4,17.4,"03:25:40",1
"23/05/24","03:40",0.0,11.8,91.9,1004.3,324.4,3.9,5.6,327.1,0.00,10.6,17.8,"03:33:40",1
"23/05/24","03:50",0.0,11.9,91.7,1004.1,326.5,4.1,6.5,331.6,0.00,10.6,17.2,"03:49:06",1
"23/05/24","04:00",0.0,12.1,91.4,1004.5,319.0,4.1,6.8,310.1,0.00,10.8,17.5,"03:50:28",1
"23/05/24","04:10",0.0,12.2,91.1,1005.0,321.7,4.1,7.0,319.6,0.00,10.8,17.2,"04:06:50",1
"23/05/24","04:20",0.0,12.1,91.0,1004.8,315.9,3.5,6.0,314.7,0.00,10.7,17.3,"04:14:00",1
"23/05/24","04:30",0.0,11.9,91.2,1005.2,318.1,3.5,5.1,300.2,0.00,10.6,17.2,"04:21:20",1
"23/05/24","04:40",0.0,11.9,91.4,1005.5,322.0,4.0,6.5,322.9,0.00,10.6,17.2,"04:31:04",1
"23/05/24","04:50",0.0,11.8,91.5,1005.5,314.9,3.6,6.3,323.7,0.00,10.5,17.2,"04:44:36",1
"23/05/24","05:00",0.0,11.8,91.6,1005.7,314.1,3.6,5.4,330.7,0.00,10.5,17.2,"04:53:04",1
"23/05/24","05:10",0.0,11.9,91.7,1005.7,326.0,4.4,6.2,335.2,0.00,10.6,17.1,"05:06:28",1
"23/05/24","05:20",0.0,12.0,91.7,1005.7,324.2,3.7,5.4,344.5,0.00,10.7,17.2,"05:15:14",1
"23/05/24","05:30",0.0,12.1,91.7,1006.2,323.7,3.7,5.8,324.9,0.00,10.8,17.2,"05:27:02",1
"23/05/24","05:40",0.0,12.3,91.8,1006.4,320.6,3.6,5.8,338.3,0.00,11.0,17.1,"05:34:58",1
"23/05/24","05:50",0.2,12.4,91.8,1006.9,315.9,3.5,6.3,328.6,0.00,11.1,17.0,"05:48:00",1
"23/05/24","06:00",0.2,12.5,92.0,1006.9,306.5,2.5,4.0,312.6,0.00,11.3,16.9,"05:52:08",1
"23/05/24","06:10",0.2,12.4,92.2,1006.4,322.0,2.3,4.1,323.2,0.01,11.2,17.0,"06:08:16",1
"23/05/24","06:20",0.2,12.4,92.6,1006.9,325.8,2.7,4.4,337.8,0.01,11.3,16.9,"06:14:08",1
"23/05/24","06:30",0.0,12.5,92.8,1007.1,325.5,2.8,4.1,321.4,0.03,11.4,17.0,"06:28:24",1
"23/05/24","06:40",0.0,12.7,93.0,1006.9,332.9,2.5,4.1,339.0,0.06,11.6,16.9,"06:30:32",1
"23/05/24","06:50",0.0,12.9,93.2,1006.7,326.9,2.6,3.5,331.3,0.11,11.9,16.9,"06:41:52",1
"23/05/24","07:00",0.0,13.1,93.2,1006.9,325.2,3.0,4.4,331.0,0.12,12.1,16.9,"06:52:42",1
"23/05/24","07:10",0.0,13.4,93.0,1006.9,321.7,2.8,4.9,314.3,0.14,12.3,16.9,"07:09:34",1
"23/05/24","07:20",0.0,13.8,92.8,1007.1,323.2,3.0,4.8,316.2,0.17,12.7,16.8,"07:12:40",1
"23/05/24","07:30",0.0,14.1,92.5,1007.4,314.0,2.7,4.0,336.1,0.20,12.9,16.8,"07:24:56",1
"23/05/24","07:40",0.0,14.3,91.3,1007.6,337.6,2.0,4.3,350.7,0.13,12.9,16.8,"07:30:02",1
"23/05/24","07:50",0.0,14.6,90.7,1007.8,336.9,2.3,4.9,333.8,0.18,13.1,16.8,"07:44:12",1
"23/05/24","08:00",0.0,14.6,89.5,1007.4,341.7,2.2,4.4,341.5,0.15,12.9,16.8,"07:50:24",1
"23/05/24","08:10",0.0,15.2,87.3,1007.6,347.3,2.1,5.8,327.1,0.28,13.1,16.7,"08:09:20",1
"23/05/24","08:20",0.0,15.8,83.7,1007.1,336.4,3.1,6.5,342.7,0.26,13.1,16.8,"08:14:40",1
"23/05/24","08:30",0.0,16.3,80.5,1007.6,331.9,2.1,5.1,313.8,0.25,13.0,16.7,"08:22:56",1
"23/05/24","08:40",0.0,16.9,77.8,1007.4,330.9,2.0,4.0,352.6,0.26,13.0,16.8,"08:31:20",1
"23/05/24","08:50",0.0,17.6,73.5,1008.1,357.7,1.5,5.5,11.9,0.30,12.9,16.9,"08:47:52",1
"23/05/24","09:00",0.0,18.0,71.0,1008.1,337.7,2.1,5.1,345.2,0.33,12.7,17.0,"08:53:12",1
"23/05/24","09:10",0.0,18.7,71.0,1008.3,315.2,1.6,4.0,347.6,0.36,13.4,16.9,"09:01:28",1
"23/05/24","09:20",0.0,18.2,69.6,1008.6,332.0,2.8,5.6,335.5,0.39,12.6,17.0,"09:18:08",1
"23/05/24","09:30",0.0,18.5,69.8,1008.1,342.1,2.7,6.7,333.7,0.41,12.9,17.0,"09:21:12",1
"23/05/24","09:40",0.0,18.6,68.8,1007.8,330.1,2.6,4.9,318.9,0.41,12.8,17.0,"09:32:56",1
"23/05/24","09:50",0.0,18.6,66.2,1007.8,340.1,2.5,7.1,306.9,0.42,12.2,17.1,"09:42:48",1
"23/05/24","10:00",0.0,18.7,64.7,1008.1,343.8,3.1,7.8,337.7,0.44,12.0,17.1,"09:52:56",1
"23/05/24","10:10",0.0,18.6,61.2,1008.1,333.1,3.2,5.9,342.7,0.47,11.0,17.1,"10:07:28",1
"23/05/24","10:20",0.0,18.9,60.5,1008.1,325.3,3.0,6.0,325.4,0.50,11.1,17.3,"10:14:56",1
"23/05/24","10:30",0.0,18.8,58.3,1008.1,336.6,4.4,12.6,333.9,0.52,10.5,16.9,"10:28:24",1
"23/05/24","10:40",0.0,19.6,58.1,1007.8,356.8,2.8,7.4,329.2,0.54,11.2,17.1,"10:34:40",1
"23/05/24","10:50",0.0,19.8,56.1,1007.8,341.3,2.8,8.6,338.7,0.56,10.8,17.3,"10:44:32",1
"23/05/24","11:00",0.0,19.6,54.2,1007.8,345.7,3.5,8.7,322.6,0.57,10.1,17.4,"10:53:36",1
"23/05/24","11:10",0.0,20.1,53.4,1007.8,341.7,2.5,6.6,301.2,0.57,10.4,17.4,"11:02:40",1
"23/05/24","11:20",0.0,21.3,52.2,1007.6,356.9,1.5,5.4,3.2,0.58,11.2,17.4,"11:17:44",1
"23/05/24","11:30",0.0,21.3,52.4,1007.4,349.5,2.1,6.7,349.4,0.60,11.2,17.3,"11:20:40",1
"23/05/24","11:40",0.0,20.0,54.9,1007.6,341.2,3.9,7.7,320.2,0.58,10.7,17.5,"11:38:24",1
"23/05/24","11:50",0.0,20.5,53.2,1007.8,348.4,3.4,7.3,324.6,0.60,10.7,17.6,"11:42:24",1
"23/05/24","12:00",0.0,20.1,52.4,1007.6,338.4,4.2,9.3,337.0,0.61,10.1,17.5,"11:51:12",1
"23/05/24","12:10",0.0,20.4,51.3,1007.8,329.6,3.0,8.2,340.9,0.60,10.1,17.6,"12:00:16",1
"23/05/24","12:20",0.0,20.4,51.1,1008.1,333.6,3.5,6.8,350.8,0.57,10.0,17.7,"12:12:56",1
"23/05/24","12:30",0.0,20.2,49.5,1008.1,337.2,3.9,7.8,345.8,0.62,9.3,18.1,"12:26:08",1
"23/05/24","12:40",0.0,20.6,47.0,1007.6,340.6,3.2,6.4,46.0,0.62,8.9,17.9,"12:39:20",1
"23/05/24","12:50",0.0,21.2,48.4,1007.8,327.6,2.6,7.0,345.0,0.62,9.9,17.8,"12:44:32",1
"23/05/24","13:00",0.0,21.6,47.1,1007.6,341.2,2.7,5.9,326.9,0.62,9.9,17.9,"12:59:28",1
"23/05/24","13:10",0.0,21.7,42.6,1007.6,0.3,2.2,4.9,350.9,0.61,8.5,17.9,"13:03:36",1
"23/05/24","13:20",0.0,21.7,44.1,1007.6,348.2,2.5,5.7,341.2,0.61,9.0,18.0,"13:16:16",1
"23/05/24","13:30",0.0,22.1,45.6,1007.6,348.4,2.1,6.2,339.3,0.60,9.9,18.0,"13:25:20",1
"23/05/24","13:40",0.0,21.5,45.2,1007.6,347.9,4.2,7.5,339.4,0.60,9.2,18.1,"13:32:08",1
"23/05/24","13:50",0.0,20.8,43.8,1007.6,334.5,4.9,8.7,349.1,0.59,8.1,18.2,"13:48:32",1
"23/05/24","14:00",0.0,21.2,45.7,1007.6,338.4,5.1,8.1,345.1,0.58,9.1,18.1,"13:50:02",1
"23/05/24","14:10",0.0,21.5,45.1,1007.4,334.4,5.0,9.0,334.5,0.58,9.2,18.3,"14:06:08",1
"23/05/24","14:20",0.0,21.5,43.5,1007.1,343.7,5.0,10.3,308.8,0.56,8.6,18.2,"14:11:44",1
"23/05/24","14:30",0.0,21.9,46.2,1007.4,340.0,3.7,7.9,334.0,0.55,9.9,18.4,"14:21:52",1
"23/05/24","14:40",0.0,21.6,44.3,1007.4,340.4,4.5,8.3,339.4,0.54,9.0,18.3,"14:33:28",1
"23/05/24","14:50",0.0,22.3,42.3,1007.4,346.4,3.1,7.5,355.2,0.53,8.9,18.6,"14:49:04",1
"23/05/24","15:00",0.0,21.6,42.2,1006.9,328.8,4.0,7.8,328.6,0.53,8.3,18.6,"14:58:16",1
"23/05/24","15:10",0.0,21.8,43.0,1007.4,338.4,4.0,7.9,334.2,0.49,8.7,18.6,"15:03:20",1
"23/05/24","15:20",0.0,21.9,42.3,1007.4,348.1,3.5,6.3,339.2,0.48,8.6,18.6,"15:12:48",1
"23/05/24","15:30",0.0,21.6,39.1,1007.4,342.5,4.0,7.2,346.6,0.44,7.1,18.7,"15:20:08",1
"23/05/24","15:40",0.0,21.7,40.8,1007.6,341.1,3.6,8.0,331.2,0.42,7.9,18.4,"15:37:44",1
"23/05/24","15:50",0.0,22.1,39.8,1007.6,332.7,3.0,5.8,341.7,0.42,7.8,18.6,"15:42:32",1
"23/05/24","16:00",0.0,22.7,38.5,1007.4,349.8,2.5,5.0,343.9,0.40,7.9,18.6,"15:59:44",1
"23/05/24","16:10",0.0,22.1,41.3,1007.6,339.2,3.2,6.8,319.0,0.37,8.4,18.6,"16:04:16",1
"23/05/24","16:20",0.0,22.5,40.0,1007.6,348.0,2.3,5.1,334.6,0.35,8.3,18.8,"16:11:28",1
"23/05/24","16:30",0.0,21.6,41.2,1007.6,321.6,3.7,7.1,319.5,0.33,7.9,18.8,"16:29:20",1
"23/05/24","16:40",0.0,21.8,42.2,1007.6,331.4,3.5,6.0,333.5,0.31,8.4,18.7,"16:39:52",1
"23/05/24","16:50",0.0,21.5,43.7,1008.1,326.9,4.1,7.3,316.0,0.28,8.7,18.9,"16:42:08",1
"23/05/24","17:00",0.0,21.1,42.8,1007.4,336.3,4.1,8.0,332.9,0.25,8.0,18.9,"16:55:28",1
"23/05/24","17:10",0.0,21.3,43.9,1007.4,344.9,3.2,5.6,338.7,0.23,8.6,19.0,"17:02:16",1
"23/05/24","17:20",0.0,20.7,44.2,1007.4,344.0,3.7,8.6,325.4,0.20,8.1,18.8,"17:18:00",1
"23/05/24","17:30",0.0,20.4,45.3,1007.6,343.0,4.2,8.5,334.2,0.17,8.2,18.7,"17:29:28",1
"23/05/24","17:40",0.0,20.3,46.0,1007.8,344.6,3.9,9.1,333.7,0.17,8.4,18.8,"17:31:04",1
"23/05/24","17:50",0.0,20.1,48.0,1007.8,342.1,4.2,8.2,332.2,0.09,8.8,19.0,"17:47:36",1
"23/05/24","18:00",0.0,19.8,48.7,1008.1,341.3,4.2,9.0,345.8,0.01,8.7,18.9,"17:50:48",1
"23/05/24","18:10",0.0,19.5,50.0,1008.1,343.4,4.2,9.6,345.5,0.01,8.9,18.7,"18:05:12",1
"23/05/24","18:20",0.0,19.3,51.0,1008.3,339.7,3.7,6.2,341.3,0.01,9.0,18.9,"18:11:12",1
"23/05/24","18:30",0.0,18.8,52.0,1008.6,338.3,4.5,9.5,332.1,0.01,8.8,18.7,"18:27:52",1
"23/05/24","18:40",0.0,18.4,52.8,1008.6,336.0,5.1,10.1,344.0,0.00,8.6,18.9,"18:38:56",1
"23/05/24","18:50",0.0,18.2,54.9,1008.6,334.2,4.0,7.9,336.8,0.00,9.0,18.7,"18:43:04",1
"23/05/24","19:00",0.0,17.9,55.6,1008.8,338.3,3.7,6.7,340.0,0.00,8.9,18.7,"18:50:48",1
"23/05/24","19:10",0.0,17.5,56.8,1008.8,336.8,3.7,9.7,324.9,0.00,8.9,18.7,"19:09:44",1
"23/05/24","19:20",0.0,17.0,58.6,1009.3,337.7,3.5,7.7,340.9,0.00,8.9,18.7,"19:19:52",1
"23/05/24","19:30",0.0,16.5,60.2,1009.5,334.1,3.2,6.7,329.6,0.00,8.8,18.4,"19:28:32",1
"23/05/24","19:40",0.0,16.3,61.3,1009.7,329.2,3.2,6.7,356.0,0.00,8.9,18.5,"19:39:54",1
"23/05/24","19:50",0.0,16.0,62.0,1010.0,318.5,3.2,5.8,329.7,0.00,8.8,18.6,"19:45:50",1
"23/05/24","20:00",0.0,15.7,63.2,1010.0,315.4,2.6,6.3,336.0,0.00,8.8,18.5,"19:53:22",1
"23/05/24","20:10",0.0,15.5,64.2,1010.0,304.6,2.5,4.3,329.1,0.00,8.8,18.6,"20:02:18",1
"23/05/24","20:20",0.0,15.3,65.3,1010.4,319.0,2.2,3.9,314.6,0.00,8.9,18.4,"20:11:06",1
"23/05/24","20:30",0.0,15.2,66.6,1010.7,333.0,2.1,4.2,331.9,0.00,9.1,18.2,"20:26:38",1
"23/05/24","20:40",0.0,15.1,67.5,1010.7,318.0,2.2,4.9,329.9,0.00,9.2,18.2,"20:35:04",1
"23/05/24","20:50",0.0,15.1,68.5,1010.9,324.8,2.6,5.0,323.3,0.00,9.4,18.3,"20:42:12",1
"23/05/24","21:00",0.0,15.1,68.9,1010.7,319.7,2.6,4.4,314.7,0.00,9.5,18.0,"20:54:48",1
"23/05/24","21:10",0.0,15.0,69.4,1010.7,319.0,2.8,5.0,320.4,0.00,9.5,18.1,"21:03:12",1
"23/05/24","21:20",0.0,14.9,69.8,1011.2,320.0,2.0,3.5,319.1,0.00,9.5,18.1,"21:15:28",1
"23/05/24","21:30",0.0,14.8,70.4,1011.6,315.3,2.0,3.6,333.5,0.00,9.5,18.0,"21:22:22",1
"23/05/24","21:40",0.0,14.8,70.6,1011.6,319.5,2.5,4.2,317.3,0.00,9.6,18.1,"21:34:58",1
"23/05/24","21:50",0.0,14.7,70.9,1011.9,314.4,2.2,3.7,335.9,0.00,9.5,17.9,"21:40:08",1
"23/05/24","22:00",0.0,14.7,71.2,1011.9,322.2,2.5,5.0,320.5,0.00,9.6,18.0,"21:52:24",1
"23/05/24","22:10",0.0,14.5,71.6,1011.9,298.3,1.8,3.4,342.8,0.00,9.5,17.7,"22:03:42",1
"23/05/24","22:20",0.0,14.6,71.9,1012.1,318.5,2.1,4.5,323.7,0.00,9.6,17.8,"22:12:06",1
"23/05/24","22:30",0.0,14.5,72.2,1012.1,307.9,1.5,2.9,301.6,0.00,9.6,17.8,"22:26:26",1
"23/05/24","22:40",0.0,14.5,72.6,1012.1,323.4,1.6,2.8,332.9,0.00,9.7,17.7,"22:32:28",1
"23/05/24","22:50",0.0,14.6,73.0,1011.6,327.7,2.0,3.2,306.2,0.00,9.9,17.8,"22:47:10",1
"23/05/24","23:00",0.0,14.5,73.1,1011.9,300.4,1.8,2.9,312.4,0.00,9.8,17.7,"22:50:24",1
"23/05/24","23:10",0.0,14.4,73.3,1012.1,287.2,1.2,2.9,334.0,0.00,9.7,17.6,"23:07:56",1
"23/05/24","23:20",0.0,14.2,73.4,1012.1,293.8,1.6,2.5,309.1,0.00,9.6,17.6,"23:10:24",1
"23/05/24","23:30",0.0,14.3,73.6,1012.1,303.2,1.6,2.8,321.5,0.00,9.7,17.7,"23:24:32",1
"23/05/24","23:40",0.0,14.2,73.8,1012.6,292.3,1.2,2.0,315.9,0.00,9.6,17.6,"23:31:36",1
"23/05/24","23:50",0.0,14.1,74.3,1012.1,319.5,1.3,2.2,328.7,0.00,9.6,17.5,"23:45:12",1
"23/05/24","24:00",0.0,14.1,74.9,1012.3,322.4,1.6,2.4,328.5,0.00,9.8,17.7,"23:58:24",1
